Flag for Germany Weather past 2 weeks in Rottenburg am Neckar, Baden-Württemberg, Germany

Now
31 °F

Partly sunny.


Feels Like: 28 °F
Forecast: 23 / 35 °F
Wind: 3 mph from Southwest

Location: Stuttgart-Echterdingen

Current Time: Feb 1, 2015 at 9:19:38 AM

Latest Report: Feb 1, 2015 at 9:00 AM


Visibility: 17 mi

Pressure: 29.26 "Hg

Humidity: 88%

Dew point: 28 °F

Location of Rottenburg am NeckarLocation

Historic Weather in Rottenburg am Neckar — Graph

°F

Rottenburg am Neckar temperature yesterday

Maximum temperature yesterday: 37 °F (at 4:00 PM)
Minimum temperature yesterday: 31 °F (at 1:00 AM)
Average temperature yesterday: 33 °F

Past Weeks' High & Low Weather Summary

 TemperatureHumidityPressure
High39 °F (Jan 29, 2:00 PM)99% (Jan 18, 7:00 AM)30.47 "Hg (Jan 18, 7:00 AM)
Low27 °F (Jan 19, 6:00 AM)65% (Jan 31, 4:00 PM)28.76 "Hg (Jan 30, 2:00 AM)
Average34 °F87%29.88 "Hg
* Reported Jan 17 8:00 AM — Feb 1 8:00 AM, Rottenburg am Neckar, Weather by CustomWeather, © 2014

Note: Actual official high and low records may vary slightly from our data, if they occured in-between our weather recording intervals... More about our weather records

Advertising

Rottenburg am Neckar weather history for previous 24 hours

 ConditionsComfort  
Time TempWeatherWind HumidityBarometerVisibility
8:00 AM
Feb 1
31 °FPartly sunny.2 mph88%29.23 "Hg17 mi
7:00 AM32 °FLight snow. Overcast.3 mph86%29.21 "Hg16 mi
6:00 AM32 °FLight snow. Overcast.1 mph76%29.21 "Hg5 mi
5:00 AM31 °FPassing clouds.1 mph78%29.18 "Hg37 mi
3:00 AM33 °FPassing clouds.2 mph80%29.21 "Hg31 mi
2:00 AM31 °FPassing clouds.1 mph90%29.21 "Hg19 mi
1:00 AM31 °FPassing clouds.2 mph90%29.21 "Hg19 mi
12:00 AM32 °FPassing clouds.2 mph89%29.21 "Hg19 mi
11:00 PM
Jan 31
32 °FPassing clouds.2 mph88%29.21 "Hg22 mi
9:00 PM33 °FOvercast.3 mph89%29.18 "Hg12 mi
8:00 PM34 °FLow clouds.3 mph90%29.15 "Hg9 mi
7:00 PM33 °FSnow. Low clouds.2 mph95%29.15 "Hg1 mi
6:00 PM34 °FSnow. Overcast.2 mph89%29.15 "Hg2 mi
5:00 PM37 °FOvercast.2 mph67%29.12 "Hg37 mi
4:00 PM37 °FOvercast.2 mph65%29.09 "Hg37 mi
3:00 PM37 °FOvercast.2 mph67%29.09 "Hg37 mi
2:00 PM36 °FOvercast.5 mph67%29.09 "Hg37 mi
1:00 PM36 °FOvercast.5 mph68%29.09 "Hg37 mi
12:00 PM35 °FOvercast.5 mph70%29.12 "Hg37 mi
11:00 AM34 °FOvercast.5 mph74%29.09 "Hg43 mi
9:00 AM32 °FPartly sunny.2 mph83%29.09 "Hg37 mi
Weather by CustomWeather, © 2014

See weather overviewHow to use our weather pages